Погода Ивано-Франковск

Погода Ивано-Франковск : погода сейчас, прогноз погоды и архив. Всё, что Вы хотите узнать о погоде Ивано-Франковск!

Поиск расширенной информации на нашем сайте:

Другие новости

Новости СМИ2

Главная страница сайта

Новости сайта

02.10.2013

Напоминаем, что на нашем новом сайте вы можете получить высокодетализированные прогнозы погоды по пунктам России, СНГ и мира (включающие важные для авиации метеовеличины, такие как направление и скорость ветра, видимость, явления погоды, количество и форма облачности, нижняя и верхняя граница облачности), а также ознакомиться с разнообразными материалами по авиационной метеорологии и подборкой полезных ссылок на эту тему.

Сайт Метеоцентр.Азия посвящён разработке технологий оптимизации авиаметеорологического обслуживания, включая проектирование и перспективное создание нескольких автоматизированных авиаметеорологических систем:
- система выпуска высокодетальных прогностических карт явлений погоды для нижнего воздушного пространства по России и ближнему зарубежью;
- система верификации прогнозов TAF (выпускаемых синоптиками официальных АМСГ РФ и ближнего зарубежья) и AUTOTAF (выпускаемых сайтом Метеоцентр.Азия) - выявление ошибок, онлайн-сопоставление с фактической погодой METAR, автоматическое внесение коррективов в прогнозы при резком отклонении фактической погоды от прогноза, подсчёт оправдываемости прогнозов по элементам и в целом;
- система обработки, анализа и отображения авиаметеорологической информации для применения провайдерами метеорологической информации.

Рекомендуем: Качественный синускан в наличии stimul20.ru.

Погода Ивано-Франковск - сегодня

Время (UTC), дата Ветер
(°,м/с) 
Видим.   Явления Облачность Т
(°С)
Тd
(°С)
f(%) Тe
(°С)
Pmin
(гПа)
dP
(гПа)
Po
(мм)
O2
(г/м3)
Тmin Tmax R s Состояние
почвы
18 24.04.17 230 (ЮЗ) 20000 м    6/6 1380 м 
[Sc]
+7.1 -1.4 55 +6  1018.9  0.4  739  290    +10.7  0.4     
21 24.04.17 220 (ЮЗ) 20000 м    3/0 средняя 
[Ac trans]
+1.3 -1.6 81 +1  1019.3  -0.3  738  296           
00 25.04.17 тихо ()   20000 м    3/0 средняя 
[Ac trans]
-1.9 -2.7 94 -2  1018.7  -1  738  300           
03 25.04.17 тихо ()   20000 м    4/0 верхняя 
[Ci fib]
-3.7 -4.2 96 -4  1018.6  -0.3  737  302           
06 25.04.17 110 (В) 50000 м    6/0 верхняя 
[Ci fib]
+6.6 +1.4 69 +6  1016.7  -0.6  737  290  -3.8         
09 25.04.17 190 (Ю) 20000 м    5/3 1500 м средняя 
[Sc|Ac trans]
+15.4 +0.2 35 +15  1014.1  -1.4  736  281           
12 25.04.17 210 (ЮЗ) 50000 м    4/3 1500 м верхняя 
[Cu hum|Ci fib]
+19.3 +1.7 31 +19  1011.5  -2.2  734  276           
15 25.04.17 230 (ЮЗ) 10  20000 м    4/0 средняя 
[Ac trans]
+18.1 +2.3 35 +18  1011.1  -0.5  734  277           
18 25.04.17 200 (Ю) 20000 м    4/0 средняя 
[Ac trans]
+12.8 +4 55 +13  1011.8  0.2  734  282    +20       
21 25.04.17 тихо ()   10 км    4/0 средняя 
[Ac trans]
+9.1 +3.8 69 +9  1012.3  734  286           
00 26.04.17 230 (ЮЗ) 10 км    4/0 средняя 
[Ac trans]
+4.6 +3.1 90 +5  1012.7  -0.2  734  290           
03 26.04.17 020 (С) 10 км    6/0 средняя, верхняя 
[Ac trans|Ci fib]
+6.9 +3.6 79 +8  1011.6  -0.8  733  288           
06 26.04.17 180 (Ю) 20000 м    9/3 1000 м средняя 
[Sc|Ac trans]
+15.1 +5.5 53 +15  1011.8  1.2  734  279  +3.8         
09 26.04.17 200 (Ю) 30000 м    9/3 1000 м средняя 
[Cu hum|Ac trans]
+17.6 +4.6 42 +18  1011.9  0.4  735  277           
12 26.04.17 220 (ЮЗ) 20000 м    9/4 1000 м средняя 
[Cu hum|Ac trans]
+20.3 +2.9 32 +20  1011.1  -0.5  734  275           
15 26.04.17 190 (Ю) 50000 м    8/3 1000 м верхняя 
[Cu hum|Ci fib]
+19.5 +4.6 37 +20  1011.2  0.1  734  275           
18 26.04.17 190 (Ю) 20000 м    8/4 1000 м средняя 
[Sc diur, vesp|Ac trans]
+16.2 +5.6 49 +17  1011.1  -0.6  734  278    +20.5       
21 26.04.17 тихо ()   20000 м    9/4 1000 м средняя 
[Sc|Ac trans]
+11.6 +6.8 72 +12  1012.1  0.5  734  283           
00 27.04.17 тихо ()   20000 м    9/0 средняя 
[Ac trans]
+10.1 +7.1 82 +10  1012  -0.3  734  284           
03 27.04.17 090 (В) 30000 м    8/4 1200 м средняя 
[Sc|Ac trans]
+9 +6.2 83 +9  1011.6  -0.5  734  285           
06 27.04.17 тихо ()   50000 м    8/0 средняя, верхняя 
[Ac trans|Ci fib]
+15.4 +6.8 56 +15  1011.1  0.3  734  279  +8.6         
09 27.04.17 180 (Ю) 50000 м    8/0 средняя 
[Ac trans]
+20.9 +5.9 38 +21  1010.7  0.2  734  274           
12 27.04.17 160 (Ю) 50000 м    9/0 средняя 
[Ac trans]
+21.5 +5.1 34 +22  1010.3  -0.3  734  273           
15 27.04.17 тихо ()   50000 м    8/0 средняя 
[Ac trans]
+22.1 +5.3 33 +22  1010.5  0.2  734  273           
18 27.04.17 тихо ()   20000 м    9/0 средняя 
[Ac trans]
+17.8 +8 53 +18  1011.3  0.3  734  276    +22.3       
Время (UTC), дата Ветер
(°,м/с) 
Видим.   Явления Облачность Т
(°С)
Тd
(°С)
f(%) Тe
(°С)
Pmin
(гПа)
dP
(гПа)
Po
(мм)
O2
(г/м3)
Тmin Tmax R s Состояние
почвы

Для получения пояснительной информации подведите курсор к названию столбца.

ПОГОДА Ивано-Франковск - архив

Всё, что Вы хотите узнать о погоде Ивано-Франковск - удобно и подробно!

Выберите нужную дату (начиная с 1 января 2015* года) и нажмите кнопку "Найти".
Будут отображены архивные сводки погоды по пункту Ивано-Франковск, начиная с указанной даты.


Отображать данные в формате CSV (для использования в таблицах Excel)


Внимание! Наш архив погоды предназначен исключительно для личного некоммерческого использования в познавательных целях. Если Вам необходимы официальные справки о состоянии погоды (для производственных, юридических, коммерческих и т.п. целей), обращайтесь в органы Росгидромета.

*Примечание: данная дата относится к архиву по метеостанциям СССР (Россия, СНГ, Балтия).
Архив по метеостанциям Зарубежной Европы и Азии (кроме Китая) хранится 10 дней, по другим регионам земного шара (Китай, Африка, Америка, Австралия, Океания) - 1 день.

Ивано-Франковск - район местоположения метеостанции


Название, широта, долгота, высота метеостанции:
Ивано-Франковск 49°ш. 24.4°д. 280 м над ур. моря [Украина]

Дополнительная информация

В oтличие oт бoльшинства пoгoдных сайтoв мы публикуем пoдрoбную метеoинфoрмацию в детальнoм прoфессиoнальнoм фoрмате.

Характеристики температуры и влажнoсти вoздуха измеряются на высoте 2 м в тени вдали oт зданий и деревьев.
Скoрoсть ветра измеряется на высoте 10 м (на урoвне рoста челoвека скoрoсть ветра ниже в 1.5-2 раза). Если метеoстанция нахoдится в гoрoде или в лесу, тo скoрoсть ветра занижена на 2-4 м/с пo сравнению с oткрытым местoм. Скoрoсть ветра над акватoриями крупных рек и oзёр, а также на вершинах хoлмoв на 2-5 м/с выше, чем в oбычных услoвиях.
Атмoсфернoе давление в разных тoчках местнoсти мoжет значительнo oтличаться oт давления на метеoстанции, в зависимoсти oт услoвий рельефа (при пoдъёме на 10 м давление пoнижается примернo на 1 мм рт.ст.).